Content
SEND FEEDBACK

Daily
Averages
Monthly
Summary
United States of America

SOUTHPORT, NORTH CAROLINA


Home > North America > United States > North Carolina
Elevation: 38 feet     Latitude: 34 00N     Longitude: 078 01W

WEATHER
 
SELECT A DAY
Number of Records: 136,373;   Date Range: 8/21/01 - 7/26/14
 
SHARE

PRINT THIS DATA

[ ← Previous Day ]
WEATHER ALMANAC - APRIL 30, 2013
[ Next Day → ]
[ °C ]   °F
Weather ElementAverageHighLow
Temperature64 °F71.4 °F (3:35 pm)59 °F (5:55 am)
Dewpoint59 °F60.6 °F (10:55 am)56.8 °F (7:35 pm)
Humidity84.3 %98 % (4:55 am)63 % (3:15 pm)
Barometer30.05 in30.12 in (10:55 pm)29.98 in (2:35 am)
Wind Speed4.8 mph11.5 mph (2:15 pm)
Wind Gust19.6 mph (1:35 pm)
Weather ElementAverage
Visibility10 mi
Wind DirectionNE (42 °)

Weather ElementTotal
Precipitation---
Cooling Degree Days0.2 (Base 65)
Growing Degree Days15.2 (Base 50)
Averaged from 71 records on April 30, 2013
WEATHER CONDITIONS BREAKOUT
WIND DIRECTION BREAKOUT
WEATHER BY HOUR - APRIL 30, 2013
[ °C ]   °F
Local TimeTemperatureDewpointHumidityBarometerVisibilityWind DirectionWind SpeedGust SpeedPrecipitationEventsConditions
12:35 AM62.4 °F60.4 °F93 %30.00 in10.0 miCalmClear
12:55 AM62.6 °F59.9 °F91 %30.01 in10.0 miCalmScattered Clouds
1:15 AM62.4 °F60.1 °F92 %30.00 in10.0 miCalmScattered Clouds
1:35 AM62.2 °F60.4 °F94 %30.00 in10.0 miCalmClear
1:55 AM62.8 °F59.9 °F90 %29.99 in10.0 miCalmClear
2:15 AM62.6 °F60.1 °F91 %29.99 in10.0 miCalmClear
2:35 AM62.6 °F59.9 °F91 %29.98 in10.0 miCalmClear
2:55 AM61.7 °F59.9 °F94 %29.98 in10.0 miCalmClear
3:15 AM61.0 °F59.9 °F96 %29.98 in10.0 miCalmClear
3:35 AM60.8 °F59.9 °F97 %29.99 in10.0 miCalmClear
3:55 AM60.8 °F59.9 °F97 %29.98 in10.0 miCalmClear
4:15 AM60.3 °F59.5 °F97 %29.99 in10.0 miCalmScattered Clouds
4:35 AM59.9 °F59.2 °F97 %30.00 in10.0 miCalmOvercast
4:55 AM59.5 °F59.0 °F98 %30.00 in10.0 miCalmMostly Cloudy
5:15 AM59.5 °F59.0 °F98 %30.00 in10.0 miCalmScattered Clouds
5:35 AM59.2 °F58.5 °F97 %30.01 in10.0 miNNE (20°)3.5 mphMostly Cloudy
5:55 AM59.0 °F58.3 °F97 %30.01 in10.0 miNNE (30°)3.5 mphMostly Cloudy
6:15 AM59.4 °F58.6 °F97 %30.02 in10.0 miNNE (30°)3.5 mphOvercast
6:35 AM59.9 °F59.0 °F97 %30.03 in10.0 miCalmOvercast
6:55 AM59.9 °F59.2 °F97 %30.03 in10.0 miCalmMostly Cloudy
7:15 AM60.6 °F59.7 °F97 %30.04 in10.0 miNNE (30°)3.5 mphOvercast
7:35 AM60.8 °F59.7 °F96 %30.04 in10.0 miNNE (20°)3.5 mphOvercast
7:55 AM60.8 °F59.5 °F96 %30.04 in10.0 miNNE (30°)4.6 mphOvercast
8:15 AM61.0 °F59.9 °F96 %30.05 in10.0 miNNE (20°)6.9 mphOvercast
8:35 AM61.7 °F60.1 °F94 %30.05 in10.0 miNNE (20°)6.9 mphOvercast
8:55 AM62.2 °F60.4 °F94 %30.05 in10.0 miNNE (20°)5.8 mphOvercast
9:15 AM62.4 °F60.1 °F92 %30.06 in10.0 miNNE (30°)5.8 mphOvercast
9:35 AM62.2 °F59.4 °F90 %30.06 in10.0 miENE (60°)6.9 mphOvercast
9:55 AM62.8 °F59.7 °F90 %30.06 in10.0 miNNE (30°)4.6 mphOvercast
10:15 AM62.8 °F59.4 °F89 %30.06 in10.0 miNE (40°)6.9 mphOvercast
10:35 AM63.1 °F59.5 °F88 %30.06 in10.0 miNE (50°)5.8 mphOvercast
10:55 AM65.3 °F60.6 °F85 %30.06 in10.0 miNNE (30°)6.9 mphOvercast
11:15 AM65.8 °F60.3 °F82 %30.07 in10.0 miNE (40°)5.8 mphMostly Cloudy
11:35 AM65.7 °F59.7 °F81 %30.07 in10.0 miNE (40°)8.1 mphMostly Cloudy
11:55 AM66.2 °F59.0 °F78 %30.07 in10.0 miNE (50°)9.2 mph16.1 mphMostly Cloudy
12:15 PM66.0 °F58.6 °F77 %30.07 in10.0 miENE (70°)9.2 mphMostly Cloudy
12:35 PM66.2 °F59.0 °F78 %30.07 in10.0 miENE (60°)9.2 mphScattered Clouds
12:55 PM67.1 °F59.4 °F76 %30.06 in10.0 miEast (80°)10.4 mphScattered Clouds
1:15 PM67.8 °F59.5 °F75 %30.06 in10.0 miENE (70°)6.9 mph17.3 mphClear
1:35 PM67.8 °F59.0 °F73 %30.05 in10.0 miEast (90°)6.9 mph19.6 mphScattered Clouds
1:55 PM68.9 °F59.5 °F72 %30.06 in10.0 miEast (80°)9.2 mph16.1 mphScattered Clouds
2:15 PM69.1 °F58.6 °F69 %30.05 in10.0 miENE (70°)11.5 mph16.1 mphClear
2:35 PM70.3 °F59.2 °F68 %30.05 in10.0 miENE (60°)8.1 mphClear
2:55 PM70.9 °F58.6 °F65 %30.04 in10.0 miNE (40°)11.5 mphClear
3:15 PM70.7 °F57.6 °F63 %30.04 in10.0 miNE (50°)6.9 mphClear
3:35 PM71.4 °F58.6 °F64 %30.04 in10.0 miENE (70°)9.2 mphClear
3:55 PM70.2 °F58.6 °F67 %30.04 in10.0 miEast (80°)8.1 mphClear
4:15 PM69.4 °F58.3 °F68 %30.03 in10.0 miENE (60°)9.2 mphClear
4:35 PM69.3 °F58.8 °F69 %30.03 in10.0 miENE (70°)6.9 mphClear
4:55 PM68.2 °F58.6 °F71 %30.04 in10.0 miENE (60°)8.1 mphClear
5:15 PM67.6 °F58.3 °F72 %30.04 in10.0 miENE (60°)5.8 mphClear
5:35 PM67.5 °F58.1 °F72 %30.04 in10.0 miENE (70°)6.9 mphClear
5:55 PM68.2 °F58.3 °F71 %30.04 in10.0 miEast (80°)6.9 mphClear
6:15 PM69.3 °F58.1 °F68 %30.05 in10.0 miNE (50°)8.1 mphClear
6:35 PM68.4 °F57.9 °F69 %30.05 in10.0 miENE (60°)5.8 mphClear
6:55 PM66.2 °F58.1 °F75 %30.06 in10.0 miENE (60°)4.6 mphClear
7:15 PM65.5 °F58.1 °F77 %30.06 in10.0 miENE (60°)3.5 mphClear
7:35 PM64.9 °F56.8 °F75 %30.06 in10.0 miNE (50°)5.8 mphClear
7:55 PM64.4 °F56.8 °F76 %30.07 in10.0 miNNE (30°)4.6 mphClear
8:15 PM63.9 °F57.2 °F79 %30.08 in10.0 miNNE (20°)4.6 mphClear
8:35 PM63.1 °F57.2 °F81 %30.09 in10.0 miNNE (20°)4.6 mphClear
8:55 PM62.4 °F57.4 °F84 %30.09 in10.0 miNNE (20°)3.5 mphClear
9:15 PM62.2 °F57.2 °F84 %30.10 in10.0 miNorth (10°)4.6 mphClear
9:35 PM62.1 °F57.2 °F84 %30.11 in10.0 miNorth (10°)4.6 mphScattered Clouds
9:55 PM62.1 °F57.2 °F84 %30.11 in10.0 miNorth (10°)4.6 mphScattered Clouds
10:15 PM62.2 °F57.4 °F84 %30.11 in10.0 miNorth (360°)6.9 mphScattered Clouds
10:35 PM62.6 °F58.6 °F87 %30.11 in10.0 miNorth (10°)5.8 mphMostly Cloudy
10:55 PM63.0 °F59.0 °F87 %30.12 in10.0 miNorth (10°)6.9 mphOvercast
11:15 PM62.1 °F59.9 °F93 %30.12 in7.0 miNorth (360°)4.6 mphDrizzle
11:35 PM61.9 °F59.4 °F91 %30.12 in10.0 miNNE (20°)4.6 mphOvercast
11:55 PM61.7 °F58.6 °F90 %30.12 in10.0 miNorth (10°)3.5 mphMostly Cloudy
Hourly data recorded from KSUT, located miles away from Southport, North Carolina







STORIES FROM OUR PARTNERS